FW2344 Weather Reports


time (UTC)temp
C
wind
direction
speed
KPH
gust
KPH
rain 1hr
cm
rain 24hr
cm
rain mn
cm
humidity
%
barometer
mb
20260510190051 15 345 0.0 6.4 1.12 1.70 1.12 90 1014.1
20260510184541 19 24 0.0 0.0 0.00 0.58 0.00 77 1013.4
20260510183036 21 24 0.0 1.6 0.00 0.58 0.00 67 1013.3
20260510181532 21 347 0.0 1.6 0.00 0.58 0.00 67 1013.5
20260510180035 21 357 0.0 3.2 0.00 0.61 0.00 67 1013.5
20260510174527 21 7 0.0 3.2 0.00 0.61 0.00 66 1013.5
20260510173024 21 132 0.0 3.2 0.00 0.61 0.00 66 1013.3
20260510171521 21 5 0.0 3.2 0.00 0.61 0.00 65 1013.7
20260510170018 22 281 0.0 4.8 0.00 0.64 0.00 65 1013.8
20260510164516 22 9 0.0 8.0 0.00 0.64 0.00 67 1013.6
20260510163011 21 338 0.0 3.2 0.00 0.64 0.00 67 1013.5
20260510161508 20 149 0.0 3.2 0.00 0.64 0.00 72 1013.9
20260510160007 20 3 0.0 4.8 0.00 0.66 0.00 73 1013.9
20260510154600 20 358 1.6 9.7 0.00 0.66 0.00 75 1014.0
20260510153100 20 153 0.0 3.2 0.00 0.66 0.00 84 1013.8
20260510151552 18 340 0.0 4.8 0.00 0.66 0.00 93 1013.9
20260510150047 17 146 0.0 6.4 0.00 0.66 0.00 94 1013.7
20260510144547 17 149 1.6 9.7 0.00 0.66 0.00 95 1013.5
20260510143050 17 100 0.0 6.4 0.00 0.66 0.00 96 1013.6
20260510141541 16 165 0.0 3.2 0.00 0.66 0.00 96 1013.6
20260510140035 15 135 0.0 3.2 0.00 0.69 0.00 96 1013.8
20260510134535 15 170 0.0 4.8 0.00 0.69 0.00 96 1014.0
20260510133035 13 61 0.0 3.2 0.00 0.69 0.00 96 1014.0
20260510131531 13 146 0.0 1.6 0.00 0.69 0.00 96 1014.1
20260510130027 13 163 0.0 1.6 0.00 0.69 0.00 96 1014.0
20260510124525 11 162 0.0 0.0 0.00 0.69 0.00 96 1014.0
20260510123021 11 162 0.0 0.0 0.00 0.69 0.00 96 1013.7
20260510121518 11 162 0.0 0.0 0.00 0.69 0.00 96 1013.5
20260510120018 11 162 0.0 0.0 0.00 0.69 0.00 96 1013.5
20260510114517 11 162 0.0 0.0 0.00 0.69 0.00 96 1013.4
20260510113014 10 162 0.0 0.0 0.00 0.69 0.00 96 1013.3
20260510111510 10 162 0.0 0.0 0.00 0.69 0.00 96 1013.2
20260510110009 9 162 0.0 0.0 0.00 0.69 0.00 96 1013.1
20260510104506 9 162 0.0 0.0 0.00 0.69 0.00 96 1012.7
20260510103004 9 162 0.0 0.0 0.00 0.69 0.00 96 1012.9
20260510101503 8 162 0.0 0.0 0.00 0.69 0.00 96 1012.6
20260510100003 8 162 0.0 0.0 0.00 0.69 0.00 96 1012.6
20260510094502 8 162 0.0 0.0 0.00 0.69 0.00 96 1012.4
20260510093001 8 162 0.0 0.0 0.00 0.69 0.00 96 1012.2
20260510091559 8 162 0.0 0.0 0.00 0.69 0.00 96 1011.9
20260510090059 8 162 0.0 0.0 0.00 0.71 0.00 96 1012.1
20260510084600 8 162 0.0 0.0 0.00 0.71 0.00 96 1012.3
20260510083056 8 162 0.0 0.0 0.00 0.71 0.00 96 1012.4
20260510081623 8 162 0.0 0.0 0.00 0.71 0.00 96 1012.6
20260510080058 8 162 0.0 0.0 0.00 0.71 0.00 96 1012.7
20260510074554 8 162 0.0 0.0 0.00 0.71 0.00 96 1013.0
20260510073101 8 162 0.0 0.0 0.00 0.71 0.00 96 1013.1
20260510071547 8 162 0.0 0.0 0.00 0.71 0.00 96 1013.1
20260510070045 8 162 0.0 0.0 0.00 0.71 0.00 96 1012.9
20260510064554 8 162 0.0 0.0 0.00 0.71 0.00 96 1012.5
20260510063044 8 162 0.0 0.0 0.00 0.71 0.00 96 1012.6
20260510061545 7 162 0.0 0.0 0.00 0.71 0.00 96 1012.8
20260510060046 7 162 0.0 0.0 0.00 0.71 0.00 96 1012.7
20260510054537 7 162 0.0 0.0 0.00 0.71 0.00 96 1012.7
20260510053042 7 162 0.0 0.0 0.00 0.71 0.00 96 1012.5
20260510051534 7 162 0.0 0.0 0.00 0.71 0.00 96 1012.3
20260510050030 7 162 0.0 0.0 0.00 0.71 0.00 96 1012.5
20260510044543 7 162 0.0 0.0 0.00 0.71 0.00 96 1012.3
20260510043025 7 162 0.0 0.0 0.00 0.71 0.00 96 1012.4
20260510041522 7 162 0.0 0.0 0.00 0.71 0.00 96 1012.5
20260510040034 7 162 0.0 0.0 0.00 0.71 0.71 96 1012.5
20260510034519 8 162 0.0 0.0 0.00 0.71 0.71 96 1012.2
20260510033018 8 162 0.0 0.0 0.00 0.71 0.71 96 1012.3
20260510031517 8 162 0.0 0.0 0.00 0.71 0.71 96 1012.4
20260510030017 8 162 0.0 0.0 0.00 0.71 0.71 96 1012.6
20260510024515 8 162 0.0 0.0 0.00 0.71 0.71 96 1012.7
20260510023012 8 162 0.0 0.0 0.00 0.71 0.71 96 1012.5
20260510021511 8 162 0.0 0.0 0.00 0.71 0.71 95 1012.5
20260510020018 8 162 0.0 0.0 0.00 0.71 0.71 95 1012.4
20260510014509 8 162 0.0 0.0 0.00 0.71 0.71 96 1012.3
20260510013008 8 162 0.0 0.0 0.00 0.71 0.71 95 1012.2
20260510011506 9 162 0.0 0.0 0.00 0.71 0.71 95 1012.0
20260510010004 10 162 0.0 0.0 0.00 0.71 0.71 95 1012.0
20260510004503 10 162 0.0 0.0 0.00 0.71 0.71 95 1011.9
20260510003002 10 162 0.0 0.0 0.00 0.71 0.71 95 1011.7
20260510001600 11 162 0.0 3.2 0.00 0.71 0.71 95 1011.4
20260509234600 11 114 0.0 1.6 0.00 0.71 0.71 95 1011.1
20260509233103 11 135 0.0 3.2 0.00 0.71 0.71 95 1011.1
20260509231556 11 194 0.0 4.8 0.00 0.71 0.71 95 1011.3
20260509230054 11 196 0.0 6.4 0.00 0.71 0.71 95 1011.1
20260509224551 11 174 0.0 3.2 0.03 0.71 0.71 95 1011.0
20260509223057 11 157 0.0 3.2 0.03 0.71 0.71 95 1011.0
20260509221547 12 133 0.0 1.6 0.03 0.71 0.71 95 1011.2
20260509220044 12 155 0.0 3.2 0.08 0.71 0.71 95 1011.4
20260509214542 12 155 0.0 3.2 0.10 0.71 0.71 95 1011.8
20260509213041 11 105 0.0 1.6 0.15 0.71 0.71 95 1011.8
20260509211538 12 158 0.0 1.6 0.18 0.71 0.71 95 1011.8
20260509210038 12 154 0.0 0.0 0.18 0.66 0.66 95 1011.9
20260509204535 12 154 0.0 0.0 0.13 0.61 0.61 95 1012.0
20260509203032 12 154 0.0 0.0 0.10 0.56 0.56 95 1012.2
20260509201531 12 154 0.0 0.0 0.10 0.53 0.53 95 1012.3
20260509200029 12 136 0.0 1.6 0.10 0.48 0.48 95 1012.6
20260509194528 12 278 0.0 0.0 0.10 0.46 0.46 94 1012.4
20260509193033 12 278 0.0 1.6 0.10 0.46 0.46 94 1012.7
20260509191524 12 342 0.0 1.6 0.25 0.43 0.43 93 1013.1